Location: Bannatyne
(13.0833°N, 59.5333°W)
Time: 22:46:24
(UTC+00:00)

deb Explorer IX - Visible Passes

Search period start: 22 January 2020 00:00
Search period end: 01 February 2020 00:00
Orbit: 548 x 1101 km, 38.8° (Epoch: 22 January)

Date Brightness Start Highest point End Pass type
(mag) Time Alt. Az. Time Alt. Az. Time Alt. Az.
22 Jan ? 00:07:28 10° SW 00:12:39 57° SSW 00:12:39 57° SSW visible
22 Jan ? 09:14:45 16° NNW 09:19:12 40° NNE 09:24:08 10° ESE visible
22 Jan ? 23:45:12 10° SW 23:51:33 71° SE 23:51:57 70° ESE visible
23 Jan ? 08:53:56 26° NNW 08:56:53 42° NE 09:02:01 10° ESE visible
23 Jan ? 23:22:56 10° SW 23:29:08 73° SE 23:31:15 46° ENE visible
24 Jan ? 01:11:11 10° W 01:12:37 16° W 01:12:37 16° W visible
24 Jan ? 08:33:08 38° N 08:34:33 44° NE 08:39:52 10° ESE visible
24 Jan ? 23:00:42 10° SW 23:06:43 74° SE 23:10:33 28° ENE visible
25 Jan ? 00:48:56 10° W 00:51:56 22° WNW 00:51:56 22° WNW visible
25 Jan ? 08:12:23 46° NE 08:12:23 46° NE 08:17:42 10° ESE visible
25 Jan ? 09:53:55 10° WNW 09:59:12 31° SW 10:03:51 10° SSE visible
25 Jan ? 22:38:28 10° SW 22:44:20 75° SE 22:49:50 16° NE visible
26 Jan ? 00:26:43 10° W 00:31:12 26° NW 00:31:12 26° NW visible
26 Jan ? 07:51:39 37° E 07:51:39 37° E 07:55:31 10° ESE visible
26 Jan ? 09:33:03 17° W 09:36:52 31° SW 09:41:37 10° SSE visible
26 Jan ? 22:16:14 10° SW 22:21:56 77° SE 22:28:36 10° NE visible
27 Jan ? 00:04:30 10° W 00:09:41 26° NNW 00:10:27 25° NNW visible
27 Jan ? 07:30:57 24° E 07:30:57 24° E 07:33:18 10° ESE visible
27 Jan ? 09:12:19 25° W 09:14:30 31° SW 09:19:24 10° SSE visible
27 Jan ? 23:42:18 10° W 23:47:17 25° NNW 23:49:38 20° N visible
28 Jan ? 07:10:14 14° ESE 07:10:14 14° ESE 07:11:04 10° ESE visible
28 Jan ? 08:51:36 31° SW 08:52:07 31° SW 08:57:10 10° SSE visible
28 Jan ? 23:20:07 10° W 23:24:54 24° NNW 23:28:47 15° NNE visible
29 Jan ? 08:30:52 29° SSW 08:30:52 29° SSW 08:34:53 10° SSE visible
29 Jan ? 22:57:58 10° WNW 23:02:31 22° NNW 23:07:33 10° NNE visible
30 Jan ? 08:10:05 22° S 08:10:05 22° S 08:12:36 10° SSE visible
30 Jan ? 22:35:49 10° WNW 22:40:08 21° NNW 22:44:55 10° NNE visible
31 Jan ? 07:49:16 14° S 07:49:16 14° S 07:50:16 10° SSE visible
31 Jan ? 22:13:41 10° WNW 22:17:45 20° NNW 22:22:16 10° NNE visible
